Date String (YYYY-MM-DD hh:mm:ss) UTC,Instrument flags,Ambient pressure (hPa),Sample flow (lpm),Bypass flow (lpm),Sample temperature (°C),Ambient temperature (°C),ASC tube jacket temperature (°C),LED temperature (°C),Box temperature (°C),Sample RH (%),Span deviation,Mass concentration (μg/m³),Mass concentration (μg/m³),Mass concentration (μg/m³)
DateTimeUTC,F1_M11,P_M11,Q1_M11,Q2_M11,T1_M11,T2_M11,T3_M11,T4_M11,T5_M11,U1_M11,ZSPAN_M11,X2_M11,X0_M11,X1_M11
2021-09-19 05:00:00,,0825.7,5.02,0.00,29.7,28.6,00.0,38.6,31.4,15.4,0002.3,0005.02,0011.51,0004.36
2021-09-19 05:01:00,,0825.6,4.99,0.00,29.6,26.8,00.0,38.6,31.0,15.4,0002.5,0005.03,0011.58,0004.37
2021-09-19 05:02:00,,0825.7,4.99,0.00,29.4,25.4,00.0,38.5,30.6,15.6,0002.3,0005.03,0011.78,0004.37
2021-09-19 05:03:00,,0825.6,5.02,0.00,29.3,25.6,00.0,38.5,30.6,15.7,0002.2,0005.06,0010.40,0004.39
2021-09-19 05:04:00,,0825.6,4.99,0.00,29.2,26.1,00.0,38.4,30.7,15.7,0001.5,0005.08,0010.17,0004.39
2021-09-19 05:05:00,,0825.6,5.01,0.00,29.2,26.6,00.0,38.4,30.8,15.7,0001.6,0005.09,0010.70,0004.39
2021-09-19 05:06:00,,0825.6,5.00,0.00,29.2,27.0,00.0,38.4,30.8,15.7,0001.6,0005.07,0010.49,0004.38
2021-09-19 05:07:00,,0825.6,5.01,0.00,29.2,27.4,00.0,38.4,30.9,15.7,0001.3,0005.03,0010.29,0004.36
2021-09-19 05:08:00,,0825.6,5.00,0.00,29.2,27.7,00.0,38.4,31.0,15.6,0000.9,0005.02,0010.55,0004.35
2021-09-19 05:09:00,,0825.7,4.99,0.00,29.3,27.9,00.0,38.4,31.0,15.7,0001.0,0004.97,0010.48,0004.33
2021-09-19 05:10:00,,0825.7,5.00,0.00,29.3,28.1,00.0,38.4,31.1,15.5,0000.8,0004.93,0010.53,0004.32
2021-09-19 05:11:00,,0825.7,5.01,0.00,29.4,28.2,00.0,38.4,31.2,15.4,0000.6,0004.89,0010.38,0004.31
2021-09-19 05:12:00,,0825.9,4.99,0.00,29.4,28.4,00.0,38.4,31.2,15.4,0000.5,0004.90,0010.40,0004.30
2021-09-19 05:13:00,,0826.1,5.01,0.00,29.4,28.5,00.0,38.4,31.3,15.4,0000.4,0004.92,0010.87,0004.30
2021-09-19 05:14:00,,0826.0,5.00,0.00,29.5,28.6,00.0,38.4,31.3,15.4,0000.1,0004.87,0010.76,0004.28
2021-09-19 05:15:00,,0825.9,5.00,0.00,29.5,28.7,00.0,38.5,31.4,15.6,-000.1,0004.85,0010.99,0004.27
2021-09-19 05:16:00,,0826.0,4.99,0.00,29.6,28.7,00.0,38.5,31.4,15.8,-000.4,0004.81,0010.98,0004.27
2021-09-19 05:17:00,,0825.9,5.01,0.00,29.6,28.8,00.0,38.5,31.4,15.9,-000.5,0004.78,0011.59,0004.25
2021-09-19 05:18:00,,0825.9,5.01,0.00,29.6,28.7,00.0,38.5,31.4,15.6,-000.5,0004.76,0011.54,0004.24
2021-09-19 05:19:00,,0825.9,4.99,0.00,29.6,27.1,00.0,38.5,31.0,15.8,-000.4,0004.72,0011.34,0004.24
2021-09-19 05:20:00,,0825.9,5.00,0.00,29.4,26.3,00.0,38.5,30.8,16.1,-000.5,0004.69,0011.54,0004.23
2021-09-19 05:21:00,,0825.9,5.01,0.00,29.4,26.5,00.0,38.5,30.8,16.3,-000.5,0004.66,0011.72,0004.21
2021-09-19 05:22:00,,0825.9,5.00,0.00,29.3,26.9,00.0,38.5,30.9,16.8,-000.2,0004.64,0012.34,0004.17
2021-09-19 05:23:00,,0825.8,5.00,0.00,29.3,27.2,00.0,38.4,31.0,16.7,-000.6,0004.62,0012.31,0004.14
2021-09-19 05:24:00,,0826.0,4.99,0.00,29.3,27.6,00.0,38.4,31.0,16.9,0000.0,0004.56,0011.58,0004.11
2021-09-19 05:25:00,,0825.7,4.99,0.00,29.4,27.8,00.0,38.5,31.1,17.4,0000.0,0004.52,0011.29,0004.06
2021-09-19 05:26:00,,0825.8,5.00,0.00,29.4,28.0,00.0,38.5,31.1,17.8,0000.0,0004.47,0010.72,0004.01
2021-09-19 05:27:00,,0825.8,5.01,0.00,29.4,28.2,00.0,38.5,31.2,18.0,-000.2,0004.44,0010.43,0003.96
2021-09-19 05:28:00,,0825.8,4.99,0.00,29.5,28.3,00.0,38.5,31.3,18.1,0000.2,0004.42,0009.60,0003.93
2021-09-19 05:29:00,,0825.7,5.00,0.00,29.5,28.4,00.0,38.5,31.3,18.3,0000.3,0004.39,0009.55,0003.88
2021-09-19 05:30:00,,0826.0,5.00,0.00,29.5,28.5,00.0,38.5,31.3,18.2,0000.6,0004.35,0009.45,0003.82
2021-09-19 05:31:00,,0826.0,5.00,0.00,29.6,28.6,00.0,38.5,31.4,18.2,0000.4,0004.31,0009.48,0003.78
2021-09-19 05:32:00,,0825.9,5.01,0.00,29.6,28.7,00.0,38.6,31.4,18.3,0000.4,0004.27,0008.57,0003.74
2021-09-19 05:33:00,,0825.8,4.98,0.00,29.7,28.8,00.0,38.6,31.5,18.5,0000.3,0004.26,0008.43,0003.72
2021-09-19 05:34:00,,0825.7,5.01,0.00,29.7,28.0,00.0,38.6,31.3,18.7,0000.4,0004.25,0008.76,0003.70
2021-09-19 05:35:00,,0825.7,4.99,0.00,29.5,25.9,00.0,38.6,30.7,19.0,0000.2,0004.26,0009.25,0003.66
2021-09-19 05:36:00,,0825.5,5.01,0.00,29.3,25.3,00.0,38.5,30.5,19.3,0000.1,0004.24,0010.54,0003.63
2021-09-19 05:37:00,,0825.6,5.00,0.00,29.2,25.7,00.0,38.5,30.6,19.4,0000.0,0004.28,0011.39,0003.61
2021-09-19 05:38:00,,0825.7,5.01,0.00,29.2,26.2,00.0,38.4,30.7,19.5,0000.0,0004.29,0011.53,0003.61
2021-09-19 05:39:00,,0825.7,5.00,0.00,29.2,26.7,00.0,38.4,30.8,19.6,0000.0,0004.29,0011.59,0003.59
2021-09-19 05:40:00,,0825.6,5.01,0.00,29.2,27.1,00.0,38.4,30.8,19.6,0000.0,0004.33,0011.85,0003.58
2021-09-19 05:41:00,,0825.6,5.00,0.00,29.2,27.4,00.0,38.4,30.9,19.7,0000.0,0004.32,0011.78,0003.57
2021-09-19 05:42:00,,0825.6,4.99,0.00,29.2,27.7,00.0,38.4,31.0,19.7,0000.0,0004.35,0011.91,0003.55
2021-09-19 05:43:00,,0825.5,5.01,0.00,29.3,27.9,00.0,38.4,31.0,19.7,0000.0,0004.36,0012.69,0003.53
2021-09-19 05:44:00,,0825.5,5.00,0.00,29.3,28.1,00.0,38.4,31.1,19.7,0000.0,0004.31,0012.48,0003.49
2021-09-19 05:45:00,,0825.5,5.00,0.00,29.3,28.2,00.0,38.4,31.1,19.8,0000.0,0004.26,0013.88,0003.46
2021-09-19 05:46:00,,0825.4,5.00,0.00,29.4,28.3,00.0,38.4,31.2,19.9,0000.0,0004.26,0014.75,0003.43
2021-09-19 05:47:00,,0825.5,5.00,0.00,29.4,28.4,00.0,38.4,31.2,19.8,0000.0,0004.27,0013.61,0003.40
2021-09-19 05:48:00,,0825.5,5.00,0.00,29.4,28.5,00.0,38.4,31.3,19.9,0000.0,0004.21,0012.86,0003.37
2021-09-19 05:49:00,,0825.4,4.99,0.00,29.5,28.5,00.0,38.4,31.3,19.9,0000.0,0004.18,0012.67,0003.34
2021-09-19 05:50:00,,0825.4,5.00,0.00,29.5,28.6,00.0,38.5,31.3,19.9,0000.0,0004.17,0012.67,0003.30
2021-09-19 05:51:00,,0825.4,5.01,0.00,29.5,28.6,00.0,38.5,31.4,19.9,0000.0,0004.12,0012.86,0003.26
2021-09-19 05:52:00,,0825.4,4.99,0.00,29.6,28.7,00.0,38.5,31.4,19.8,0000.0,0004.06,0013.25,0003.22
2021-09-19 05:53:00,,0825.4,5.01,0.00,29.6,28.8,00.0,38.5,31.4,19.9,0000.0,0004.04,0012.93,0003.19
2021-09-19 05:54:00,,0825.4,5.00,0.00,29.6,28.8,00.0,38.6,31.4,19.9,0000.0,0004.04,0012.81,0003.17
2021-09-19 05:55:00,,0825.3,5.00,0.00,29.6,27.6,00.0,38.6,31.2,20.0,0000.0,0004.05,0013.00,0003.14
2021-09-19 05:56:00,,0825.4,5.00,0.00,29.5,26.4,00.0,38.6,30.9,20.1,0000.0,0004.06,0012.07,0003.10
2021-09-19 05:57:00,,0825.4,5.01,0.00,29.4,26.4,00.0,38.5,30.9,20.2,0000.0,0004.03,0011.65,0003.07
2021-09-19 05:58:00,,0825.3,5.01,0.00,29.4,26.8,00.0,38.5,30.9,20.3,0000.0,0004.03,0012.81,0003.04
2021-09-19 05:59:00,,0825.4,4.99,0.00,29.3,27.1,00.0,38.5,31.0,20.4,0000.0,0004.08,0013.95,0003.02
